STARLINK-1523, 46028

Orbit data source: Space-Track

STARLINK-1523, 46028 is a payload satellite owned by SpaceX/Seattle (US) in LEO that was launched on Fri, 07 Aug 2020 UTC via an FALCON 9 launch vehicle from the Air Force Eastern Test Range (AFETR). Payload-class satellites include a variety of spacecraft equipped with specific instruments for various scientific and technological missions. These include communications satellites like Starlink; space stations such as the ISS; scientific satellites like the Hubble; Earth observation satellites from companies like Planet Labs, Umbra, and HawkEye 360; GPS; miniature CubeSats for education and research; and military/defense satellites.

Loading next visibility...
Identifier
46028, 2020-055B
Orbit
LEO
Country
Flag of USUS
Related business
Manufacturer
SpaceX/Seattle
Mission
Operational Commercial Communications
Bus & Motor
STARLINK, Unknown motor
Mass
260 kg wet, ~248 kg dry
Launch date (UTC)
2020-08-07 (5 years ago)
Launch vehicle
FALCON 9
Launch site
Air Force Eastern Test Range (AFETR)
Object type
Payload
Rocket body
Debris
Shape & HBR
Box + 1 Pan, 10.1 m
Radar Cross Section
13.562 m², Large (>1 m²)

Expand to show TLE details & history
Last TLE update: 1 day ago

TLE from 1 day ago
0 STARLINK-1523
1 46028U 20055B   25312.69371850  .00002207  00000-0  16698-3 0  9998
2 46028  53.0535 309.7940 0001329  92.0510 268.0631 15.06400572290666
Epoch: 2025-11-08T16:38Z
TLE epoch observation values (Epoch: 2025-11-08T16:38:57.278Z)
Latitude
-0.00003°
Longitude
11.93566°
Altitude
548.12 km
Speed
7.589 km/s
True Right ascension
20h 39m 10s
True Declination
0° 00' 00"
Sunlit
Object was in daylight at epoch
Visualization orbit readout
Latitude
Unknown
Longitude
Unknown
Altitude
Unknown
Speed
Unknown
Apparent Right ascension
Unknown
Apparent Declination
Unknown
Sunlit
N/A
Visualization observer readout
Local Sidereal Time
19:15:22
Azimuth
Unknown
Elevation
Unknown
Doppler factor
Unknown
Orbital elements
Apogee altitude
548.401 km
Perigee altitude
546.56 km
Semi-major axis
6,925.618 km
Eccentricity
0.00013
Inclination
53.0535°
RAAN
309.794°
Arg. of periapsis
92.051°
True anomaly
268.04788°
Mean anomaly
268.0631°
Eccentric anomaly
268.05549°
Mean motion
3.76578 °/min
Orbital period
95.6 mins
BSTAR
0.00016698
Loading maneuver chart data...
Computing Atmospheric mass density...
Loading historical data...
Loading historical data...
Loading historical data...
Loading historical data...
Loading historical data...
Loading historical data...
Loading historical data...

Documentation

Showing up to 5 results
|